User: anonymous   Login
Location: Caltech
(34.1382°N, 118.1253°W)
Time: 22:37:50
(UTC-07:00)
Language:

Cosmos 2322 - Orbit

View from above orbital plane
View from above orbital plane
View from above satellite
View from above satellite

Ground track
Ground track

The orbit data is extracted from the following two-line orbital elements,

1 23704U 95058A   14302.35752285  .00000017  00000-0  34546-4 0  1299
2 23704 070.9888 259.6104 0006776 109.1304 001.0945 14.13285646979946
Epoch (UTC): 29 October 2014 08:34:49
Eccentricity: 0.0006776
inclination: 70.9888°
perigee height: 843 km
apogee height: 853 km
right ascension of ascending node: 259.6104°
argument of perigee: 109.1304°
revolutions per day: 14.13285646
mean anomaly at epoch: 1.0945°
orbit number at epoch: 97994

The dashed part of the orbit path shows where the satellite is in the earth's shadow,  

DLR